Location: Unspecified
(0.0000°N, 0.0000°E)
Time: 17:04:21
(UTC+00:00)

Hubble Space Telescope - Pass Details

Date: 04 March 2026
Orbit: 476 x 478 km, 28.5° (Epoch: 15 March)

Event Time Altitude Azimuth Distance (km) Brightness Sun altitude
Rises 18:51:54 0° 257° (WSW) 2,510 6.4 -10.0°
Reaches altitude 10° 18:54:17 10° 268° (W) 1,630 4.8 -10.6°
Maximum altitude 18:57:35 29° 330° (NNW) 879 2.1 -11.4°
Drops below altitude 10° 19:00:54 10° 33° (NNE) 1,625 2.9 -12.2°
Enters shadow 19:01:10 - 34° (NE) 1,721 3.0 -12.3°
